Tracking 22879 objects as of 22-Apr-2021
HD Live streaming from Space Station
objects crossing your sky now

CZ-3C R/B

Track CZ-3C R/B now!


NORAD ID: 43875
Int'l Code: 2018-110B
Perigee: 228.6 km
Apogee: 33,669.6 km
Inclination: 28.4 °
Period: 590.7 minutes
Semi major axis: 23320 km
RCS: Unknown
Launch date: December 24, 2018
Source: People's Republic of China (PRC)
Launch site: Xichang Space Center, China (XSC)

Note: This is a ROCKET BODY
aabbcc
Your satellite tracking list
Your tracking list is empty




NASA's NSSDC Master Catalog

Two Line Element Set (TLE):
1 43875U 18110B   21111.64997448  .00013700  00000-0  19096-2 0  9993
2 43875  28.4319  12.9567 7169997 359.0373   0.1781  2.43785130 20129
Source of the keplerian elements: AFSPC